CXA673 KMYF-KAVX

Flight info

Callsign CXA673
Flight time 0h 21m
Altitude 10000
Route MZB V23 OCN V208 SXC
Aircraft B350/L-SBGRW/S

Departure

Time 2026-04-23 01:11
Airport Montgomery-Gibbs Executive Airport (KMYF)

Arrival

Time 2026-04-23 01:32
Airport Catalina Airport (KAVX)
Time Latitude Longitude Altitude Speed Heading
2026-04-23 01:02 32.81334 -117.14010 425 ft 0 kts 204°
2026-04-23 01:09 32.81333 -117.14016 421 ft 3 kts 291°
2026-04-23 01:09 32.81380 -117.14001 425 ft 11 kts 31°
2026-04-23 01:09 32.81365 -117.13902 418 ft 17 kts 116°
2026-04-23 01:09 32.81306 -117.13748 422 ft 24 kts 114°
2026-04-23 01:10 32.81244 -117.13593 423 ft 11 kts 110°
2026-04-23 01:10 32.81276 -117.13557 420 ft 8 kts 26°
2026-04-23 01:10 32.81315 -117.13583 423 ft 24 kts 295°
2026-04-23 01:10 32.81513 -117.14081 437 ft 100 kts 296°
2026-04-23 01:11 32.81825 -117.14982 760 ft 130 kts 285°
2026-04-23 01:11 32.81963 -117.16148 1155 ft 153 kts 278°
2026-04-23 01:11 32.82139 -117.17468 1563 ft 169 kts 281°
2026-04-23 01:11 32.82334 -117.18894 1970 ft 180 kts 280°
2026-04-23 01:12 32.82545 -117.20405 2369 ft 188 kts 286°
2026-04-23 01:12 32.83290 -117.21668 2791 ft 194 kts 321°
2026-04-23 01:12 32.84398 -117.22594 3173 ft 199 kts 324°
2026-04-23 01:12 32.85583 -117.23460 3663 ft 197 kts 334°
2026-04-23 01:13 32.86829 -117.24051 4262 ft 194 kts 337°
2026-04-23 01:13 32.88082 -117.24681 4817 ft 193 kts 334°
2026-04-23 01:13 32.89290 -117.25339 5450 ft 192 kts 333°
2026-04-23 01:13 32.90529 -117.26021 5939 ft 197 kts 333°
2026-04-23 01:14 32.91840 -117.26731 5992 ft 217 kts 333°
2026-04-23 01:14 32.93260 -117.27500 6004 ft 229 kts 333°
2026-04-23 01:14 32.94741 -117.28306 5998 ft 238 kts 334°
2026-04-23 01:14 32.96259 -117.29130 6004 ft 244 kts 334°
2026-04-23 01:15 32.97830 -117.29981 5998 ft 248 kts 333°
2026-04-23 01:15 32.99408 -117.30840 5992 ft 251 kts 334°
2026-04-23 01:15 33.00992 -117.31704 5992 ft 253 kts 334°
2026-04-23 01:15 33.02595 -117.32575 5990 ft 254 kts 333°
2026-04-23 01:16 33.04225 -117.33434 5994 ft 256 kts 338°
2026-04-23 01:16 33.05912 -117.34106 5988 ft 256 kts 339°
2026-04-23 01:16 33.07599 -117.34821 5990 ft 256 kts 338°
2026-04-23 01:16 33.09265 -117.35546 5990 ft 257 kts 338°
2026-04-23 01:17 33.10954 -117.36249 5991 ft 257 kts 339°
2026-04-23 01:17 33.12644 -117.36952 5992 ft 257 kts 339°
2026-04-23 01:17 33.14336 -117.37669 5984 ft 257 kts 339°
2026-04-23 01:17 33.16014 -117.38375 5988 ft 258 kts 339°
2026-04-23 01:18 33.17708 -117.39085 5991 ft 258 kts 338°
2026-04-23 01:18 33.19384 -117.39796 5992 ft 258 kts 339°
2026-04-23 01:18 33.21099 -117.40517 5989 ft 258 kts 339°
2026-04-23 01:18 33.22729 -117.41359 5988 ft 256 kts 326°
2026-04-23 01:19 33.23993 -117.42832 5986 ft 255 kts 302°
2026-04-23 01:19 33.24650 -117.44795 5987 ft 254 kts 281°
2026-04-23 01:19 33.24844 -117.46883 5991 ft 254 kts 276°
2026-04-23 01:19 33.25040 -117.48973 5993 ft 254 kts 279°
2026-04-23 01:20 33.25344 -117.51065 5990 ft 255 kts 281°
2026-04-23 01:20 33.25647 -117.53162 5994 ft 255 kts 280°
2026-04-23 01:20 33.25921 -117.55242 5992 ft 255 kts 280°
2026-04-23 01:20 33.26209 -117.57337 5996 ft 255 kts 281°
2026-04-23 01:21 33.26497 -117.59415 5995 ft 255 kts 280°
2026-04-23 01:21 33.26782 -117.61515 5996 ft 255 kts 280°
2026-04-23 01:21 33.27067 -117.63601 5992 ft 255 kts 280°
2026-04-23 01:21 33.27354 -117.65695 5996 ft 255 kts 280°
2026-04-23 01:22 33.27639 -117.67791 5998 ft 254 kts 280°
2026-04-23 01:22 33.27923 -117.69881 6000 ft 255 kts 281°
2026-04-23 01:22 33.28206 -117.71967 5999 ft 255 kts 281°
2026-04-23 01:22 33.28489 -117.74042 5998 ft 254 kts 281°
2026-04-23 01:23 33.28773 -117.76140 6001 ft 254 kts 280°
2026-04-23 01:23 33.29052 -117.78211 6000 ft 254 kts 281°
2026-04-23 01:23 33.29336 -117.80307 6000 ft 254 kts 281°
2026-04-23 01:23 33.29619 -117.82399 6006 ft 254 kts 281°
2026-04-23 01:24 33.29898 -117.84474 6003 ft 254 kts 281°
2026-04-23 01:24 33.30177 -117.86550 6000 ft 253 kts 280°
2026-04-23 01:24 33.30462 -117.88647 6003 ft 254 kts 281°
2026-04-23 01:24 33.30739 -117.90722 6001 ft 254 kts 280°
2026-04-23 01:25 33.31018 -117.92809 6006 ft 254 kts 281°
2026-04-23 01:25 33.31297 -117.94886 6001 ft 254 kts 280°
2026-04-23 01:25 33.31574 -117.96962 6004 ft 254 kts 281°
2026-04-23 01:25 33.31856 -117.99055 6007 ft 254 kts 280°
2026-04-23 01:26 33.32129 -118.01113 6007 ft 254 kts 280°
2026-04-23 01:26 33.32405 -118.03195 6003 ft 254 kts 281°
2026-04-23 01:26 33.32687 -118.05293 6012 ft 254 kts 281°
2026-04-23 01:26 33.32961 -118.07370 6012 ft 254 kts 281°
2026-04-23 01:27 33.33239 -118.09460 6011 ft 254 kts 281°
2026-04-23 01:27 33.33519 -118.11560 6015 ft 255 kts 280°
2026-04-23 01:27 33.33792 -118.13644 6013 ft 255 kts 281°
2026-04-23 01:27 33.34070 -118.15738 6015 ft 255 kts 281°
2026-04-23 01:28 33.34350 -118.17835 6009 ft 254 kts 281°
2026-04-23 01:28 33.34621 -118.19921 6017 ft 254 kts 281°
2026-04-23 01:28 33.34897 -118.22027 5887 ft 259 kts 280°
2026-04-23 01:28 33.35180 -118.24152 5521 ft 264 kts 281°
2026-04-23 01:29 33.35476 -118.26368 5146 ft 268 kts 280°
2026-04-23 01:29 33.35760 -118.28565 4776 ft 271 kts 280°
2026-04-23 01:29 33.36127 -118.30777 4400 ft 268 kts 291°
2026-04-23 01:29 33.37103 -118.32594 4038 ft 250 kts 310°
2026-04-23 01:30 33.38228 -118.34070 3667 ft 235 kts 312°
2026-04-23 01:30 33.39304 -118.35461 3529 ft 215 kts 312°
2026-04-23 01:30 33.40266 -118.36696 3515 ft 187 kts 312°
2026-04-23 01:30 33.41084 -118.37729 3524 ft 161 kts 315°
2026-04-23 01:31 33.41953 -118.38413 3263 ft 135 kts 320°
2026-04-23 01:31 33.42161 -118.39366 2521 ft 134 kts 245°
2026-04-23 01:31 33.41430 -118.40050 1897 ft 131 kts 231°
2026-04-23 01:31 33.40940 -118.40848 1606 ft 109 kts 237°
2026-04-23 01:32 33.40554 -118.41490 1573 ft 82 kts 234°
2026-04-23 01:32 33.40414 -118.41727 1586 ft 1 kts 184°
2026-04-23 01:32 33.40361 -118.41657 1587 ft 17 kts 121°
2026-04-23 01:32 33.40324 -118.41573 1591 ft 2 kts 113°